RH
105 103 105 103 98 89 80 74 72 72 67 58 51 46 44 42 41 40 37 33 29 23 19 17 17 17 16 16 15 16 16 17 18 19 19 20 24 30 43 57 62 59 53 48 46 47 47 48 50 51 54 57 59 62 63 62 61 59 58 56 55 55 54 53 51 50 47 45 43 41 38 35 34 32 31 33 34 34 32 32 32 29 26 24 22 19 18 17
103 103 104 106 104 95 84 78 74 76 71 60 54 50 47 45 43 40 37 34 30 24 20 18 18 18 17 16 15 15 16 17 18 19 19 20 23 24 30 43 57 65 64 60 55 52 52 54 55 57 61 65 67 68 69 68 66 65 63 61 60 59 59 58 56 54 50 47 45 41 37 35 33 31 30 31 32 32 31 30 30 30 29 28 27 25 23 22
101 105 104 105 108 101 89 81 78 79 76 64 58 57 53 49 45 41 38 35 31 26 22 20 20 20 18 16 15 15 16 17 18 19 20 21 22 24 26 32 43 54 63 69 69 66 65 65 66 68 71 74 76 76 76 75 72 72 69 66 66 65 64 62 59 54 48 45 43 41 37 35 33 32 30 30 31 30 29 28 27 28 29 29 30 29 28 26
102 103 104 106 109 105 94 85 82 83 80 70 64 64 59 54 50 45 41 36 33 29 25 23 22 22 20 18 16 16 16 17 19 20 22 22 22 24 28 33 39 46 56 65 72 76 78 79 81 82 83 84 84 83 82 81 79 78 75 73 71 69 67 63 58 52 46 43 43 42 39 36 34 33 31 30 30 29 28 27 26 27 27 27 28 29 30 29
102 101 103 108 109 107 100 92 87 86 83 74 69 69 63 58 53 48 44 40 37 34 30 27 25 24 22 19 18 18 18 19 23 25 26 25 25 26 30 35 40 48 57 63 70 77 83 88 91 93 94 93 92 89 87 86 85 83 80 78 76 72 68 61 55 49 45 43 43 42 40 38 36 34 32 30 29 28 27 26 26 26 25 25 27 29 30 30
100 101 101 105 107 106 104 98 91 88 85 78 74 72 66 61 56 51 48 46 45 41 37 33 29 27 24 22 21 22 22 26 32 34 32 31 32 30 30 34 40 49 59 68 75 81 88 91 94 99 101 100 98 96 93 91 90 87 83 81 77 72 66 59 53 50 46 44 44 44 42 40 37 35 33 31 29 27 26 24 24 24 23 23 24 27 29 30
99 102 101 104 104 103 105 101 93 90 87 81 77 74 67 63 57 54 54 53 51 48 45 39 34 31 27 26 27 29 29 35 44 47 46 43 41 38 36 37 41 49 60 71 81 89 94 96 98 102 105 104 103 102 100 98 96 91 85 80 76 71 66 59 55 52 49 46 46 45 43 41 38 36 33 31 29 27 25 23 22 21 21 21 22 25 26 27
100 100 101 104 103 102 106 102 95 93 90 84 80 75 69 65 62 61 61 59 55 52 48 42 38 34 30 32 35 38 41 46 53 60 64 62 57 54 50 48 49 53 62 73 85 97 103 103 103 104 106 105 105 105 104 103 100 95 89 82 77 72 65 60 56 53 50 48 48 46 44 41 38 36 33 31 28 26 25 23 22 20 19 20 21 23 23 23
100 100 101 104 103 103 105 103 97 95 93 88 84 78 72 70 70 71 68 64 58 53 49 42 38 33 33 37 39 47 58 62 65 70 77 78 78 77 71 67 65 65 72 82 92 102 106 108 107 106 106 105 107 107 106 105 101 95 90 83 76 70 64 60 56 54 51 49 48 45 43 40 37 34 31 30 28 27 26 24 23 21 20 20 21 21 21 21
101 101 101 103 103 103 104 103 100 98 96 93 88 83 79 80 81 81 77 69 61 55 50 42 36 32 35 40 43 57 72 78 82 84 87 88 91 93 90 86 84 85 92 98 103 105 107 108 108 108 108 107 109 109 106 105 100 94 87 78 70 66 63 60 57 55 52 49 46 44 40 37 35 33 33 32 30 29 28 26 24 23 22 21 20 20 20 20
102 102 102 103 103 102 101 103 103 99 99 97 93 91 89 91 93 92 85 74 65 59 51 42 35 32 35 44 55 67 76 83 92 95 95 94 95 96 95 95 95 97 99 101 103 103 104 105 105 105 106 107 107 108 107 103 98 91 82 74 69 67 66 63 59 55 51 49 45 42 39 36 36 35 35 34 32 30 28 26 25 23 21 21 21 21 21 20
104 103 103 102 102 101 100 103 104 100 101 99 96 97 98 99 102 101 91 79 70 62 51 40 35 34 37 46 60 73 77 81 90 97 100 99 95 92 91 94 96 96 96 97 98 98 99 98 98 99 99 99 99 100 100 96 91 85 80 78 74 72 72 68 63 57 53 49 45 42 40 38 36 35 35 34 32 30 28 26 24 21 21 25 29 29 26 22
104 103 103 101 101 102 100 101 103 100 103 102 99 100 102 102 105 107 96 83 77 64 49 41 36 36 38 43 52 66 75 78 82 89 97 101 99 95 92 94 96 96 96 97 96 95 95 95 95 95 94 93 94 94 94 93 90 87 84 83 79 75 73 70 65 58 53 50 45 43 41 36 34 33 34 33 32 30 27 25 21 21 27 37 43 40 35 31
103 102 102 101 101 102 100 101 101 101 103 104 102 101 102 101 103 107 98 87 82 65 48 41 38 35 36 39 43 52 61 67 72 77 83 90 94 95 96 96 97 97 97 95 94 93 92 92 91 90 90 90 91 90 90 89 87 85 83 79 76 73 69 65 62 56 51 48 44 41 38 34 32 32 32 31 30 27 24 22 21 26 37 50 55 51 46 44
101 101 101 101 101 101 100 101 101 102 102 103 103 101 101 101 102 103 96 91 86 67 48 43 39 35 34 34 36 39 43 49 54 60 64 70 74 77 80 82 83 84 83 82 82 82 82 81 80 80 80 79 78 77 76 75 73 71 69 66 64 61 58 55 52 48 43 39 36 33 32 29 28 28 28 27 26 24 23 22 25 36 50 62 65 60 58 56
102 101 101 100 100 100 100 100 100 101 101 102 103 102 101 102 104 102 95 93 91 72 51 45 42 38 36 33 33 33 34 36 37 40 43 46 48 49 50 51 52 53 52 53 54 56 57 57 57 57 57 56 56 55 54 52 51 49 48 46 45 42 41 39 36 34 31 29 27 25 24 24 24 24 23 24 24 25 25 26 32 43 57 72 75 72 70 67
103 101 100 100 100 100 100 100 99 100 101 101 102 102 101 101 103 100 95 94 94 81 58 48 46 45 43 39 36 34 32 32 31 31 31 31 31 31 31 31 31 31 31 31 31 33 33 33 33 33 33 33 33 33 32 31 30 29 29 28 27 27 26 26 25 24 22 22 21 21 22 23 24 23 23 24 26 29 31 32 37 46 60 76 82 82 82 77
103 103 102 100 100 100 100 99 99 100 101 101 102 103 102 101 103 100 96 95 96 89 69 54 48 48 51 49 44 40 36 35 33 32 31 30 29 28 28 28 27 27 26 26 25 25 25 25 24 24 24 23 23 23 22 22 22 21 21 20 21 22 23 23 23 22 21 21 22 23 26 29 30 29 28 28 30 33 34 36 40 47 58 72 80 82 82 76
101 105 104 100 99 99 98 97 99 100 100 100 101 102 102 102 102 98 95 95 97 94 81 66 55 50 52 55 54 49 45 43 41 39 37 36 35 34 33 31 30 29 28 27 26 25 25 24 24 24 24 23 23 23 23 24 24 24 23 21 21 22 25 26 25 25 25 26 28 31 35 38 39 37 36 33 33 34 34 37 40 45 52 61 69 73 73 70
95 104 106 101 99 98 96 96 98 100 100 100 101 102 102 101 100 95 92 94 97 97 91 80 68 56 52 56 56 54 53 51 50 47 45 44 42 40 39 37 36 34 33 32 30 29 27 27 26 26 24 23 23 23 25 26 26 27 27 26 24 23 26 28 27 28 30 33 35 38 42 46 46 43 41 39 39 37 36 37 39 42 45 50 56 60 63 61
89 100 106 103 101 99 97 96 93 98 101 100 100 102 101 101 100 96 92 92 96 98 97 91 81 66 56 57 58 57 56 56 56 54 53 51 48 48 46 44 43 41 41 39 37 35 33 32 30 28 25 24 24 24 25 26 26 27 28 30 28 25 26 28 28 29 34 39 40 41 46 52 51 45 43 45 44 42 39 37 38 40 41 44 46 48 52 50
84 95 103 104 103 101 100 98 95 97 101 100 100 101 101 101 101 99 93 90 92 97 99 96 91 77 61 60 62 61 62 63 63 63 63 61 58 56 54 52 50 48 46 44 41 38 36 35 33 30 29 28 27 26 26 27 27 27 28 31 31 28 26 27 28 29 33 40 41 42 47 53 53 47 45 46 45 43 40 39 39 39 39 40 42 41 42 42
82 89 98 104 106 104 101 100 99 99 100 100 100 100 101 100 100 101 99 93 89 95 102 100 99 90 72 64 65 67 71 75 75 75 75 73 69 65 61 58 55 51 48 44 41 39 36 36 34 32 32 30 28 27 27 28 28 28 28 30 32 30 26 26 27 28 32 40 42 41 45 50 51 48 46 44 44 42 40 40 38 38 38 38 38 37 36 37
78 82 87 93 100 105 103 100 100 100 100 100 100 100 100 100 100 101 101 98 90 92 102 102 101 98 84 73 68 71 82 90 90 88 85 82 78 74 68 64 60 55 51 47 44 41 39 38 36 34 32 30 29 29 29 29 29 28 28 29 31 31 26 24 26 29 33 40 42 38 39 44 45 45 44 42 42 40 38 39 38 37 38 36 35 35 34 33
68 72 77 83 89 97 99 99 100 101 100 101 101 100 100 99 101 100 100 101 95 92 99 102 101 98 92 84 75 71 77 87 93 92 90 89 86 81 75 70 67 62 55 50 47 44 41 40 38 36 33 31 30 30 31 30 29 28 28 29 30 32 28 24 27 31 35 38 38 35 34 37 39 40 40 38 37 37 37 36 36 36 36 34 33 32 32 30
60 63 72 82 89 92 95 97 99 100 101 103 101 100 101 100 100 100 100 101 99 95 97 102 102 98 95 93 86 78 75 80 89 93 94 93 90 86 81 77 73 65 55 49 46 44 44 43 40 36 34 33 32 33 32 31 31 29 28 29 31 34 31 26 27 31 34 34 32 32 32 32 35 35 35 35 34 33 33 33 33 33 32 31 30 30 29 28
58 59 64 74 84 92 99 98 96 98 102 105 104 102 102 100 100 100 100 100 100 97 97 101 105 101 98 96 91 87 86 89 94 98 98 96 93 91 86 80 73 61 51 48 48 48 50 48 43 38 37 37 36 36 34 33 34 33 31 32 34 37 33 27 27 29 32 32 30 31 31 30 32 32 31 31 32 31 30 30 29 29 29 28 28 28 27 26
59 57 57 61 67 77 87 90 91 97 102 105 106 103 101 100 100 100 100 100 98 98 98 99 101 101 101 100 96 94 95 99 101 101 99 95 92 88 83 76 67 58 54 55 54 54 54 48 43 41 39 39 38 36 35 35 36 36 37 38 37 38 35 29 27 28 31 32 32 31 29 29 30 31 30 28 29 29 26 27 27 25 26 26 26 26 25 24
59 56 54 54 56 60 66 72 81 92 101 106 107 104 101 101 100 99 100 100 97 98 97 95 95 97 101 103 103 102 100 102 104 102 98 94 89 82 78 71 65 62 62 60 58 56 53 47 44 42 40 39 37 34 35 35 36 38 41 41 38 38 37 32 30 31 33 34 34 32 28 28 29 30 30 26 27 27 25 31 34 28 24 24 24 23 23 23
58 56 54 53 53 54 56 61 69 80 91 102 108 107 104 103 102 101 101 98 97 97 94 93 92 94 101 104 104 104 103 101 102 101 97 93 88 83 79 73 67 67 64 61 60 57 51 45 43 42 39 38 36 36 38 37 36 38 41 41 39 40 38 35 35 34 34 36 36 31 28 28 29 31 29 25 27 26 24 31 34 28 24 24 22 22 23 22
57 55 52 51 51 50 51 54 59 66 76 90 103 107 105 104 103 102 100 98 97 95 92 92 93 92 97 104 104 104 106 104 101 100 97 94 93 89 82 75 71 70 66 63 60 54 47 44 43 41 39 40 40 41 40 38 37 38 39 41 42 42 39 37 37 35 35 39 36 30 27 28 29 31 30 26 26 26 26 27 27 27 27 25 23 23 23 23
57 55 53 52 50 49 49 50 51 55 63 77 94 105 105 102 102 101 100 97 97 97 97 98 100 99 99 103 104 102 106 107 102 100 98 98 98 91 83 80 78 73 67 62 56 49 46 45 43 41 43 45 45 43 42 40 40 38 38 40 43 43 40 38 38 38 39 40 36 31 28 29 31 31 29 28 25 26 30 30 28 31 31 28 26 25 25 25
58 57 56 54 53 52 52 51 51 51 55 64 83 102 104 101 102 102 99 98 98 99 102 103 104 104 102 103 103 101 104 106 103 100 99 97 95 89 85 84 79 71 63 56 50 47 46 45 44 46 48 47 46 46 45 42 39 38 38 38 41 43 39 39 42 43 44 41 36 32 29 29 32 31 28 28 26 26 32 37 35 35 35 34 31 28 29 29
61 60 59 57 56 56 55 55 54 53 53 55 67 90 103 103 101 101 100 100 100 99 100 102 101 102 104 105 103 102 103 104 101 100 96 91 88 87 86 82 74 65 57 52 50 48 46 45 47 50 49 46 45 45 43 40 38 37 37 37 41 42 40 42 45 46 45 40 35 31 30 32 33 33 30 29 29 30 36 42 41 39 39 37 35 32 33 32
64 63 62 60 60 59 59 59 58 55 55 53 55 72 96 104 101 101 102 100 101 101 101 101 99 99 106 108 104 101 102 103 101 99 94 87 86 87 84 78 69 59 52 51 51 48 46 48 51 52 50 47 44 41 40 39 39 37 37 39 41 42 43 44 45 48 46 41 37 34 33 32 34 37 35 34 35 35 39 45 43 40 39 38 38 35 34 34
67 66 65 63 61 61 62 61 59 56 54 54 52 58 77 97 102 101 102 100 101 102 101 101 99 100 107 109 103 100 102 101 101 100 95 90 89 87 81 73 63 54 52 52 51 48 48 51 55 55 53 48 43 42 43 42 42 39 38 42 42 43 47 48 49 52 50 45 41 37 33 30 35 43 41 40 43 39 40 45 42 40 39 37 38 35 33 34
73 70 67 65 64 63 62 58 56 54 52 51 52 51 59 81 101 106 102 100 102 101 100 101 99 99 106 107 104 103 103 101 101 101 98 92 88 83 75 67 59 54 54 53 50 51 52 55 57 56 53 50 47 50 49 48 49 46 45 47 42 42 52 58 60 57 51 47 43 38 33 30 37 47 46 45 48 44 42 43 40 39 38 35 35 33 31 30
78 73 70 70 68 64 58 53 50 49 48 47 49 51 52 65 89 104 105 102 102 101 100 100 100 102 105 106 104 103 102 100 100 100 97 91 84 78 71 64 58 55 55 53 53 55 59 62 59 53 52 53 55 61 62 61 62 59 53 48 42 48 63 71 72 64 54 49 44 37 34 34 40 48 51 52 52 45 41 41 38 36 36 34 32 31 30 28
80 77 75 71 64 57 50 46 43 42 42 44 47 49 53 63 80 98 106 103 102 102 100 100 102 104 104 103 102 102 101 100 100 100 97 90 83 77 70 63 59 56 54 55 58 60 65 68 60 50 51 57 63 74 80 75 73 67 55 47 49 59 72 76 73 66 55 47 42 37 35 38 44 49 52 55 55 47 41 42 40 35 33 33 30 29 30 28
82 78 71 62 54 47 42 38 37 38 40 44 47 50 63 80 92 101 105 103 101 100 99 101 102 102 101 100 101 102 101 101 102 100 96 89 83 78 70 63 61 58 56 58 63 66 68 68 61 53 57 66 74 85 89 80 74 70 59 55 61 68 73 74 70 63 54 45 41 37 38 44 50 51 50 51 53 48 43 43 41 34 31 31 30 30 29 26
78 68 58 50 43 39 37 37 38 41 44 49 53 62 81 98 101 102 102 101 101 100 100 101 101 101 101 101 101 101 99 98 97 95 92 89 85 78 70 64 61 57 57 61 66 70 71 67 59 57 67 78 84 90 90 81 77 76 68 65 71 75 76 75 70 60 50 45 42 38 42 52 58 57 51 45 44 44 41 38 35 32 31 30 30 28 27 26
64 53 45 41 38 38 41 45 49 54 62 69 75 86 99 104 101 100 101 100 100 100 100 101 101 101 101 100 100 99 96 93 90 90 92 90 85 77 70 65 61 58 60 64 67 70 72 65 56 61 77 87 92 95 94 89 87 83 75 72 78 83 83 79 70 58 49 46 45 42 47 57 59 57 52 43 39 41 43 38 31 31 31 29 28 28 26 25
50 44 41 39 41 46 53 61 68 76 84 90 96 102 106 103 100 101 101 100 100 100 100 101 101 101 100 99 98 97 95 91 89 92 94 90 83 75 69 65 61 59 61 67 70 70 72 69 61 68 84 92 95 99 96 93 91 87 83 82 84 87 88 79 67 59 51 49 49 47 53 60 56 51 50 44 37 36 38 35 30 29 30 28 28 27 25 24
44 43 44 45 48 56 68 80 88 93 97 100 102 103 102 101 100 100 100 100 99 99 99 101 101 101 100 99 97 96 96 96 96 95 90 85 78 71 69 65 61 61 63 67 71 70 73 75 68 71 87 98 100 100 96 93 92 91 94 94 90 89 88 76 63 58 54 52 53 53 60 69 60 49 47 42 35 34 31 30 30 28 28 29 28 27 27 26
48 49 49 52 59 69 82 92 97 100 102 103 102 101 101 100 100 100 101 101 100 99 99 101 102 101 99 97 96 95 96 99 97 90 82 78 73 68 66 64 62 63 64 68 72 71 77 81 71 72 92 105 104 99 95 95 94 93 96 97 92 88 83 71 60 57 55 56 57 54 61 75 66 49 44 39 34 33 29 28 30 27 28 30 28 28 28 26
54 54 54 61 73 85 92 96 101 104 103 102 102 102 102 101 101 101 101 101 101 101 102 102 102 100 97 95 95 95 95 94 88 82 77 72 67 64 64 64 66 67 65 70 75 75 81 85 75 76 95 105 104 101 97 95 95 91 89 93 94 87 77 67 61 59 59 62 64 60 62 70 63 49 43 37 34 31 28 28 28 28 31 29 28 30 26 33
57 56 59 66 79 92 100 103 105 105 102 102 103 103 103 102 102 102 102 102 102 101 102 101 100 100 97 94 93 91 87 82 77 75 72 66 61 62 64 66 69 68 67 73 77 75 85 93 85 86 98 102 102 102 97 93 95 92 88 92 94 86 73 65 61 60 61 65 70 73 71 66 57 49 42 36 33 30 28 28 27 28 31 29 30 30 24 46
59 59 63 68 77 91 102 106 106 104 102 103 104 104 104 104 103 103 103 103 102 101 100 99 98 97 93 88 84 78 72 69 66 65 65 62 60 62 67 70 71 72 76 80 80 77 87 102 99 95 102 104 103 104 98 92 93 93 89 90 92 84 70 63 62 61 62 66 73 80 79 68 57 50 43 36 33 30 28 28 27 29 30 29 31 27 29 64
62 65 70 76 82 91 99 103 104 104 102 102 103 102 102 100 98 98 98 98 98 97 94 91 88 85 81 75 69 64 60 57 56 57 60 63 63 65 72 76 76 81 87 89 87 83 90 105 106 101 105 107 103 101 100 96 92 91 90 89 89 83 69 62 63 62 62 66 74 81 78 67 58 50 43 38 33 30 29 27 27 29 28 30 31 26 44 86
69 76 84 91 94 96 99 101 101 101 100 99 98 96 94 91 88 85 83 83 83 82 79 76 73 68 65 61 57 55 52 51 52 57 61 64 65 66 71 74 75 81 91 97 94 85 88 103 107 104 106 107 97 87 88 95 93 90 91 91 90 84 71 64 65 64 64 65 72 81 79 68 59 50 43 39 32 30 29 26 27 28 27 31 29 30 62 99
76 83 89 96 99 99 100 100 100 99 96 94 92 88 85 81 77 73 70 69 67 66 64 63 59 55 52 49 49 49 49 49 51 55 58 62 64 64 67 74 81 86 94 100 92 80 87 101 105 104 105 108 102 84 78 90 93 89 91 95 95 87 74 66 65 65 67 65 67 77 78 70 61 51 45 40 33 30 29 26 28 27 27 32 27 35 75 104
79 84 88 96 101 102 100 97 95 93 90 87 84 80 75 70 66 64 62 60 60 59 58 56 54 52 48 47 46 46 47 48 47 50 55 61 67 70 71 78 90 95 99 99 85 77 87 96 100 105 104 106 108 94 81 86 91 91 92 94 94 88 76 68 65 64 66 65 66 75 78 73 65 55 48 41 34 31 28 27 28 26 28 31 26 42 83 104
Wind_Speed
79 79 79 78 77 74 72 70 67 65 63 63 62 61 60 60 59 59 59 59 59 59 59 60 60 61 62 62 64 65 67 68 69 69 69 70 72 73 73 73 73 72 72 71 70 69 69 68 67 67 66 66 66 66 66 67 67 67 67 67 68 68 68 67 67 66 65 65 64 64 64 64 65 65 65 66 66 67 67 67 68 68 67 67 67 67 67 67
79 79 79 78 77 76 73 71 68 65 64 63 61 61 60 59 58 58 58 57 57 57 57 58 59 59 60 60 61 63 65 67 68 68 68 69 70 71 72 72 73 73 73 72 71 71 70 69 68 68 67 67 67 67 67 68 68 68 68 68 68 68 67 67 66 66 66 65 65 65 65 65 66 66 66 67 67 67 68 68 69 69 69 69 68 68 68 67
79 79 79 78 78 76 74 72 69 66 64 62 61 60 59 58 57 57 56 56 56 55 56 56 57 57 58 58 59 61 63 66 68 68 68 68 69 69 70 71 72 73 73 72 72 71 71 70 69 69 68 68 68 68 68 69 69 69 69 68 68 68 67 67 67 67 66 66 66 66 66 66 67 67 68 68 68 68 68 68 69 69 69 69 69 69 69 68
78 79 78 78 77 76 74 72 70 67 65 62 60 59 58 57 56 56 55 55 55 54 54 55 55 56 56 57 57 59 61 64 66 67 68 68 68 68 69 69 70 71 71 72 72 71 71 71 70 70 69 69 69 69 69 69 70 69 69 68 68 68 68 68 68 68 67 67 66 67 67 67 68 69 69 69 69 69 69 69 68 68 68 69 69 70 70 69
78 78 78 77 77 76 74 73 70 68 65 62 59 59 58 57 56 55 55 55 54 54 53 53 54 54 55 55 56 57 58 61 64 66 67 68 68 68 68 68 69 69 70 70 70 70 70 70 70 70 69 69 69 69 69 70 70 70 69 69 69 69 69 69 69 69 69 68 67 67 67 68 68 69 70 70 70 70 70 69 68 67 67 68 69 69 69 69
78 78 77 77 76 75 74 73 71 68 65 62 60 58 58 57 56 55 55 55 54 53 53 53 53 54 54 54 54 55 56 58 60 63 65 66 67 67 67 67 67 68 68 69 69 69 69 69 69 69 69 69 69 69 70 71 71 71 70 70 70 70 70 70 70 70 69 69 68 67 67 67 68 69 69 70 70 70 70 69 67 67 66 67 68 69 68 67
78 77 76 76 76 75 74 73 71 69 65 62 60 59 58 57 56 56 55 55 54 53 53 53 54 54 54 53 53 53 54 55 58 60 62 64 65 66 66 66 66 66 67 67 68 68 68 68 68 68 68 68 69 69 70 72 72 72 71 71 70 70 70 70 70 70 69 68 67 67 67 67 67 68 69 69 69 69 69 69 67 67 66 67 68 68 66 66
78 77 76 75 75 74 73 73 71 68 65 62 60 59 58 57 57 56 55 55 54 53 53 53 54 55 54 53 52 52 52 54 55 58 60 61 62 63 64 64 64 64 65 65 66 66 67 67 68 68 68 68 69 70 71 72 72 72 71 70 70 70 70 70 70 69 69 68 67 67 66 66 66 67 68 69 69 69 68 68 67 66 66 66 66 66 66 66
78 77 76 75 74 73 73 72 71 68 65 62 60 59 58 57 57 56 56 55 54 54 53 53 54 55 55 54 52 51 51 52 54 55 57 58 59 60 61 61 61 62 62 62 63 64 66 67 67 68 68 68 69 69 71 71 72 71 70 70 70 70 71 70 70 69 68 67 67 67 66 66 66 67 68 68 68 67 67 66 65 64 64 64 65 65 65 66
78 77 76 75 74 74 73 72 70 67 64 62 60 59 58 58 58 57 56 55 54 54 53 52 53 54 54 54 52 51 51 51 52 53 55 56 57 58 58 58 59 59 59 60 61 62 63 64 65 66 67 67 68 69 70 71 72 71 71 71 71 71 71 71 70 68 68 68 67 67 66 66 67 67 67 67 67 66 66 65 63 62 62 62 62 63 63 64
78 77 76 75 74 74 72 71 69 67 64 62 60 59 58 58 58 58 57 55 54 54 52 52 52 52 53 53 52 51 51 51 51 52 54 55 56 57 57 57 57 58 58 59 60 61 61 62 63 64 65 66 67 68 70 71 71 72 72 72 71 71 71 71 70 69 69 69 68 68 67 66 66 66 66 66 66 65 64 63 61 60 59 59 59 59 60 61
78 77 76 75 74 73 72 70 69 66 64 63 61 59 59 58 59 58 57 55 54 53 52 51 51 50 51 51 51 51 51 51 51 52 52 53 55 56 56 57 57 58 58 59 60 60 61 62 63 63 64 66 67 68 69 71 71 72 72 72 71 71 71 72 71 70 70 70 69 68 67 67 66 65 65 64 64 64 63 61 59 57 55 55 55 56 57 58
77 76 76 75 74 72 71 69 68 66 65 63 62 60 59 59 59 58 57 55 54 53 51 50 49 48 49 49 50 51 51 51 51 51 52 53 53 54 54 55 56 57 57 58 59 60 61 61 62 63 64 65 66 67 69 70 71 71 71 71 72 72 72 72 72 72 71 70 69 67 68 67 65 64 63 63 63 62 61 59 57 54 52 52 52 53 54 55
76 76 75 74 73 72 70 69 67 66 65 64 63 61 60 60 59 58 57 55 54 52 50 49 47 47 47 46 48 50 51 51 52 52 52 52 53 53 53 54 55 55 57 58 59 59 60 61 62 63 64 65 66 67 68 69 70 71 71 72 73 73 73 73 73 72 71 70 68 67 68 67 65 63 62 62 62 61 59 57 54 52 50 50 51 51 52 53
76 75 74 73 72 71 69 68 67 67 66 65 64 63 62 61 60 58 57 55 54 52 50 48 46 45 44 43 45 48 49 50 51 52 52 53 52 53 54 55 55 56 57 58 59 60 61 62 63 63 64 65 67 68 69 70 70 71 72 73 74 74 73 73 73 72 70 69 67 66 67 67 64 62 62 61 60 59 57 54 51 50 49 49 50 50 51 52
76 74 73 72 71 69 69 68 68 67 66 66 65 64 63 61 60 58 57 55 54 52 50 49 48 46 43 41 41 44 46 46 47 49 50 51 51 52 53 54 55 56 57 58 59 60 61 62 63 64 65 66 67 68 69 70 71 72 72 73 73 73 72 72 71 70 69 67 66 65 65 64 62 61 60 58 56 54 53 51 49 49 48 49 51 51 52 51
75 73 72 71 70 69 68 68 68 67 67 67 66 65 64 62 60 58 57 55 54 52 51 50 49 48 46 43 41 42 43 43 43 44 46 47 47 48 49 50 51 52 53 55 56 57 58 59 60 61 62 63 65 66 67 68 69 69 70 70 70 69 69 67 66 65 64 63 61 60 59 59 57 56 55 53 52 50 50 49 48 48 49 50 52 52 52 51
75 73 71 70 69 69 68 68 68 68 67 67 67 66 65 63 61 58 57 56 54 53 51 50 50 50 49 46 44 43 43 43 43 43 43 44 44 45 46 47 48 49 50 52 53 54 54 55 56 56 57 58 60 61 62 62 62 63 64 64 63 63 62 61 60 59 59 58 56 55 54 53 52 51 51 50 49 48 48 48 47 48 49 52 54 54 53 52
74 73 71 69 69 69 69 69 68 68 68 67 67 66 66 64 61 59 57 56 55 53 51 50 50 50 50 49 48 46 45 45 44 44 44 44 45 45 46 47 48 49 50 51 51 51 52 53 53 53 54 56 56 57 56 56 57 58 58 58 57 57 56 55 55 55 54 53 52 51 50 49 48 48 48 48 47 46 47 47 47 48 50 53 56 56 54 53
73 72 71 70 69 69 69 69 68 68 68 68 67 67 66 64 62 59 57 56 55 53 52 52 51 50 49 49 49 48 47 47 46 46 46 46 46 46 47 48 48 49 49 50 50 50 51 51 52 53 55 55 54 54 53 54 55 56 55 54 53 52 52 52 53 52 50 50 50 49 47 46 46 46 46 45 45 45 46 47 47 49 51 54 57 57 56 53
71 71 71 71 70 69 69 69 68 68 68 67 67 66 65 64 62 60 59 57 55 54 53 52 51 50 49 49 49 48 48 47 48 48 48 48 47 46 47 48 48 48 49 49 49 50 50 51 53 54 55 54 53 53 53 53 54 54 53 52 50 49 49 51 51 50 48 48 48 47 44 43 45 46 45 44 44 45 45 46 47 49 51 53 56 56 55 52
70 71 71 72 71 70 70 69 68 67 67 66 66 66 65 64 62 62 60 58 56 54 54 53 52 51 49 49 49 48 47 48 48 48 48 47 47 47 47 48 48 48 48 49 50 51 51 52 54 54 55 55 54 54 54 54 53 53 52 51 50 49 49 50 50 49 47 46 46 45 42 42 44 45 45 44 44 45 45 46 47 48 49 51 55 55 53 51
68 70 71 72 72 72 70 69 68 67 66 65 65 65 64 63 62 62 62 60 57 54 54 53 53 51 49 49 50 48 48 49 49 48 48 48 48 48 48 49 49 48 49 50 52 52 52 53 55 55 55 55 55 55 55 54 53 53 52 51 50 49 49 49 48 47 45 43 44 44 42 42 44 45 45 45 44 45 45 45 47 47 48 51 53 53 51 50
67 69 70 72 72 72 72 70 69 68 66 65 64 63 63 62 62 63 63 61 58 55 55 55 53 52 50 50 50 49 49 50 50 50 49 49 49 50 50 50 50 50 51 52 53 53 53 54 55 56 56 56 55 55 55 54 53 52 52 51 51 49 48 47 45 45 43 41 42 42 41 42 43 44 45 45 45 45 45 45 47 48 49 51 51 52 51 50
66 67 67 69 70 71 72 72 70 69 68 67 65 63 62 62 62 63 63 62 59 56 56 56 54 53 51 50 50 50 51 52 53 51 50 51 51 51 51 51 51 52 52 53 53 54 54 55 56 56 56 56 55 54 54 53 52 51 51 51 50 48 46 44 43 43 43 41 40 40 42 42 42 44 44 45 45 45 45 46 47 48 50 50 50 51 51 50
63 63 64 66 68 70 71 71 71 71 69 68 68 66 64 62 62 63 63 63 60 57 57 57 56 54 53 51 51 51 52 53 54 53 52 53 53 52 53 53 53 54 54 53 54 54 55 56 57 56 55 55 54 53 52 51 50 50 50 49 47 46 44 44 43 42 42 41 38 39 41 41 41 44 44 44 45 45 45 46 47 49 51 50 50 51 51 50
60 61 63 65 67 68 70 71 71 71 70 70 69 68 67 65 64 64 64 64 61 59 58 58 57 56 54 53 52 51 51 53 54 53 53 54 54 54 54 54 56 56 55 54 54 55 57 57 57 56 55 53 52 52 51 49 47 47 47 46 45 46 45 43 43 42 41 40 37 38 40 40 40 43 44 43 44 44 44 46 48 49 51 50 49 50 50 50
57 59 61 63 65 66 69 69 69 69 70 71 70 69 68 67 67 66 65 64 61 60 59 59 58 58 56 55 54 52 52 53 53 53 54 54 54 55 55 56 57 57 55 55 55 57 58 57 57 56 53 51 51 51 49 47 46 45 44 44 45 46 45 43 42 41 40 39 37 38 40 39 38 41 43 42 41 43 44 45 47 49 50 50 49 48 49 48
54 56 58 60 62 64 65 66 67 68 69 70 70 70 69 69 69 68 67 65 62 61 61 60 59 59 57 56 55 54 54 54 54 54 55 55 55 56 56 57 57 56 56 56 57 58 59 58 56 54 50 50 52 50 46 45 45 44 43 44 45 45 44 42 40 40 39 38 37 38 39 39 37 39 43 42 40 42 43 43 44 47 48 48 47 46 45 45
52 53 55 57 59 60 62 63 65 66 68 69 70 70 70 70 70 70 69 68 65 63 62 61 60 59 58 57 56 55 55 55 55 56 56 56 56 56 57 57 56 57 57 57 58 60 60 58 54 50 49 50 50 46 45 45 44 43 42 43 43 43 43 41 40 40 38 37 38 38 39 37 35 38 43 42 40 41 41 42 44 45 46 46 45 43 42 41
49 50 52 54 55 56 57 60 63 64 66 67 68 69 70 70 70 70 70 70 68 66 65 62 61 59 58 58 57 56 56 56 56 56 56 57 57 57 57 56 56 57 57 58 60 61 59 54 49 48 48 48 46 45 44 44 43 42 42 41 41 42 42 40 39 38 37 38 39 39 38 35 34 38 42 41 39 39 39 42 44 44 44 44 42 41 40 40
46 47 48 50 50 51 52 56 58 60 63 65 66 68 69 69 69 70 70 70 68 66 64 63 61 60 59 58 58 57 57 57 57 56 56 56 57 57 57 56 56 57 58 59 61 59 55 49 47 46 47 46 44 44 44 44 44 42 40 38 38 39 39 37 37 37 38 40 40 39 36 33 34 38 41 41 39 37 38 41 42 42 42 41 40 39 38 38
44 45 46 46 47 47 49 51 53 55 59 62 65 67 68 68 69 70 70 68 66 64 63 62 61 59 59 58 58 58 58 57 57 56 56 56 57 57 56 56 57 58 59 60 60 56 50 47 46 46 46 45 44 44 45 45 44 40 37 35 35 37 37 35 36 39 40 41 41 38 34 32 35 39 41 41 38 36 37 40 41 41 41 40 38 38 37 38
43 44 44 45 46 46 47 48 50 52 54 58 63 66 68 69 70 70 69 67 65 63 62 61 60 58 58 58 57 58 58 57 57 56 56 57 57 57 57 58 59 59 59 59 56 50 46 45 45 46 46 46 44 45 45 44 41 38 36 34 34 36 36 36 38 39 39 40 39 36 32 32 35 38 40 40 37 35 36 39 41 41 40 40 39 39 39 39
44 44 45 46 46 46 47 48 50 51 53 55 59 64 68 70 71 70 69 67 65 63 62 61 59 58 57 57 57 58 58 58 57 57 57 57 57 58 58 59 59 60 58 55 51 46 43 43 45 46 46 46 45 45 43 41 39 38 36 34 35 37 37 37 38 38 38 38 37 35 33 33 35 37 38 37 35 35 36 39 41 41 41 41 40 40 40 41
44 45 46 46 47 47 48 49 50 52 53 55 56 61 66 69 71 71 69 68 65 63 61 60 58 57 57 57 58 58 58 58 57 57 57 57 57 58 59 59 60 58 55 50 47 44 42 42 43 45 45 45 44 43 41 39 39 37 35 35 37 37 36 37 37 37 38 37 36 36 34 34 35 35 36 36 36 35 37 39 42 42 42 41 40 41 41 42
44 45 46 46 47 48 48 49 50 51 53 54 55 58 61 66 70 71 70 67 65 62 60 58 57 56 56 57 57 58 58 58 57 57 57 57 57 58 59 59 58 55 51 46 43 42 41 42 42 43 43 43 42 40 39 38 37 36 35 36 37 36 36 37 37 37 36 35 36 36 34 33 34 35 35 36 36 36 38 41 42 43 43 41 41 41 41 41
43 44 45 46 47 48 48 49 49 50 51 53 53 55 57 61 66 69 69 67 63 60 58 57 56 56 56 56 57 57 57 58 58 57 57 57 57 58 58 57 55 51 47 43 41 40 40 41 41 42 42 42 40 38 37 36 36 35 36 37 36 35 36 37 37 36 35 35 36 36 34 33 34 36 36 36 36 37 39 40 42 43 42 41 41 40 40 39
42 43 45 46 47 47 47 47 47 48 49 50 51 51 53 56 60 63 64 63 61 58 56 56 55 55 56 56 57 58 57 58 57 56 56 57 57 57 56 54 51 47 43 41 39 39 39 39 40 41 41 41 39 37 36 36 36 36 36 36 35 35 36 37 37 37 36 36 36 36 34 32 34 37 38 36 37 38 39 38 40 42 41 40 39 39 38 38
42 43 44 45 45 45 45 44 44 45 46 46 47 48 49 51 53 55 57 58 57 56 55 55 55 55 55 56 57 58 58 57 56 55 56 56 56 55 55 52 48 44 42 39 38 38 38 37 38 39 39 39 38 37 37 37 36 36 36 36 36 36 36 36 37 37 37 37 37 35 33 33 36 38 39 38 37 38 39 37 38 41 41 40 39 38 38 38
41 42 43 43 43 42 42 41 41 42 42 43 43 45 47 48 49 51 53 54 55 55 55 55 55 55 56 56 57 58 57 56 55 55 56 56 55 54 53 50 46 43 41 38 37 38 37 37 37 38 38 38 38 37 37 37 35 35 36 36 36 36 36 36 37 37 37 37 36 35 33 34 38 39 39 39 38 38 40 40 40 40 40 39 39 39 39 38
40 40 40 40 39 39 38 39 39 39 39 39 40 43 47 48 48 50 51 53 54 54 54 55 55 56 56 57 57 57 57 56 55 55 55 55 54 52 51 48 44 42 39 37 37 37 37 37 36 36 38 38 37 36 36 36 35 36 37 36 36 35 36 37 37 37 37 36 36 35 34 35 39 38 37 37 38 39 40 41 41 40 39 38 39 38 37 35
38 37 36 35 36 36 37 37 37 37 37 37 38 41 45 48 50 51 51 52 53 53 54 55 56 57 57 57 57 57 57 56 55 55 55 54 52 51 49 46 44 41 39 37 37 37 36 35 34 36 38 38 37 37 37 37 37 37 37 36 36 36 36 37 36 35 36 36 35 35 34 35 37 37 36 37 38 40 40 41 42 41 39 38 37 36 35 34
34 33 33 33 34 35 36 36 37 37 37 37 38 40 43 46 49 51 52 52 53 54 54 55 56 57 57 57 57 56 56 56 56 56 55 53 51 49 47 46 44 41 38 37 37 36 35 34 34 36 37 37 37 38 38 38 38 37 37 37 38 37 38 38 37 37 37 35 35 35 33 33 36 37 37 38 39 40 41 41 40 40 39 37 37 36 36 36
31 31 32 32 32 33 35 35 36 37 38 38 39 41 42 44 46 49 51 52 53 54 55 56 57 58 58 57 57 57 56 56 56 56 54 51 49 47 46 45 43 39 37 36 36 35 34 34 34 35 36 37 38 39 39 39 39 39 39 39 39 39 39 39 38 38 37 35 35 35 33 34 37 38 38 38 40 41 41 40 39 38 37 37 38 38 38 39
29 30 31 31 31 32 34 35 36 37 38 39 40 41 42 44 45 47 49 51 52 54 55 56 57 57 58 58 58 57 56 56 55 54 52 48 46 45 44 44 42 39 38 37 35 34 33 33 33 34 34 35 37 39 40 41 40 40 40 39 39 39 39 39 38 38 36 35 34 34 35 37 38 37 38 39 40 41 41 40 40 39 39 39 41 42 42 42
28 29 30 30 31 32 34 35 36 37 38 39 40 41 42 44 46 47 49 51 52 53 54 56 57 57 58 58 58 58 56 55 53 51 49 46 44 44 43 42 41 40 39 38 35 34 33 32 33 34 36 37 38 39 41 41 40 40 40 40 40 40 40 39 39 38 37 36 34 32 35 39 39 37 38 39 40 40 41 41 41 41 42 42 44 45 44 45
27 28 29 29 30 31 33 34 36 36 37 38 39 41 42 44 46 47 49 50 52 53 54 55 56 57 58 58 58 57 55 52 50 48 47 45 44 43 41 41 40 40 40 38 36 34 33 33 34 36 39 41 40 41 42 42 42 42 41 41 41 41 41 40 40 40 39 37 33 33 36 39 39 38 38 39 39 41 42 43 43 44 45 45 46 46 45 46
27 27 27 27 28 30 31 33 35 36 37 38 39 41 43 44 46 48 49 51 52 54 55 55 56 56 57 57 56 54 52 49 47 46 45 45 44 42 41 42 42 42 40 39 37 36 34 34 35 37 40 43 43 44 43 43 43 43 42 42 41 41 41 41 40 41 40 39 37 37 38 39 38 38 38 39 40 41 42 44 45 47 47 48 48 47 47 48
26 26 26 26 26 28 29 31 32 33 35 37 39 40 42 43 45 46 48 49 50 52 53 53 53 53 53 53 52 50 49 46 45 45 45 45 44 43 43 44 44 43 41 40 41 40 37 37 37 37 40 44 46 46 44 44 44 43 43 42 42 42 42 42 41 41 41 41 40 40 39 39 38 38 38 39 40 41 42 44 47 49 49 50 50 49 49 50
27 27 26 26 27 27 28 29 30 32 33 35 37 38 39 40 41 42 43 44 45 47 47 48 49 49 48 48 47 46 46 45 44 44 44 44 43 44 44 45 44 43 43 44 45 42 39 39 39 38 40 44 46 46 44 44 45 44 44 44 43 43 43 43 43 42 42 42 41 40 40 39 38 38 38 39 40 42 43 45 48 50 51 51 51 51 51 53
27 26 26 26 26 27 27 28 29 30 31 33 34 35 36 37 37 38 39 39 41 42 43 44 45 45 44 43 42 42 43 43 42 42 41 42 43 44 44 44 44 45 45 48 47 43 42 43 42 40 40 43 47 47 45 45 46 45 45 46 45 45 44 44 43 44 43 43 41 40 40 40 39 38 38 38 40 42 44 46 49 51 52 53 53 52 53 56
Wind_Direction
250 252 253 254 256 257 258 259 260 261 261 261 260 260 259 259 259 259 259 260 260 259 259 258 257 257 256 254 253 252 251 251 250 250 249 249 248 248 248 248 249 249 249 249 249 250 250 251 251 252 253 254 255 256 257 258 259 259 259 259 259 259 260 260 260 260 259 259 258 258 258 258 258 258 258 259 259 259 259 259 259 260 260 260 261 261 261 262
249 251 252 253 255 256 258 259 260 261 261 261 261 260 260 259 259 259 259 259 259 259 259 258 258 257 256 255 254 252 251 250 249 249 249 249 248 248 248 248 248 249 249 250 250 250 251 251 252 252 253 254 256 257 258 259 259 260 260 260 260 260 260 260 260 260 259 259 259 259 259 259 259 259 259 260 260 259 259 259 259 260 260 260 260 260 260 261
249 250 251 252 254 255 257 258 260 261 261 261 261 260 260 260 260 260 260 260 260 259 259 258 258 257 256 255 254 253 251 249 249 248 248 248 248 248 248 248 248 249 249 250 250 251 251 252 252 253 254 255 256 257 258 259 259 259 260 260 260 260 260 260 260 260 260 260 260 260 260 260 260 261 261 261 261 260 260 259 259 260 260 260 260 260 260 260
248 249 250 251 253 254 256 258 259 260 261 261 260 260 260 261 261 261 262 262 262 261 259 259 258 258 257 256 255 254 252 250 248 248 248 248 248 248 248 249 249 249 249 250 250 251 251 252 252 253 254 255 256 257 258 258 259 259 260 260 260 261 261 260 261 261 261 261 261 262 262 262 262 262 262 262 262 261 261 260 260 260 260 260 260 260 260 260
247 248 249 250 252 253 255 257 258 260 260 260 259 259 259 260 261 262 262 262 262 262 261 260 259 259 258 256 255 254 252 250 249 248 247 248 248 248 248 249 249 249 250 250 250 251 251 252 252 253 253 254 255 256 257 258 259 259 260 260 261 261 261 261 262 262 262 262 262 262 262 262 262 263 263 263 263 263 262 262 261 260 260 261 261 261 260 260
245 247 248 249 250 252 254 256 258 259 259 259 258 258 258 259 260 261 262 262 262 262 262 261 261 260 259 257 255 254 253 251 250 249 248 248 248 248 248 249 249 249 250 250 251 251 252 252 252 253 253 254 254 255 256 258 258 259 260 260 261 262 262 262 263 263 263 263 263 263 263 263 263 264 264 264 264 264 264 263 262 261 261 260 261 261 261 260
244 246 247 248 249 251 253 255 257 258 258 258 257 257 257 258 259 260 261 262 262 262 262 262 262 261 259 257 255 254 253 251 250 249 249 248 248 248 249 249 249 250 250 250 251 251 252 253 253 253 253 254 254 255 256 257 258 260 260 261 262 262 263 263 263 263 263 263 263 263 264 264 264 265 265 265 265 265 265 265 264 263 262 261 260 261 261 260
243 244 246 247 249 250 252 254 256 257 257 257 256 256 257 258 259 260 261 262 262 263 263 262 261 260 259 257 255 253 252 251 250 249 249 249 249 249 249 250 250 250 250 251 251 252 252 253 253 253 253 254 254 255 256 258 259 260 261 262 262 263 263 263 263 263 263 264 264 264 265 265 266 266 267 267 266 266 266 266 265 264 262 261 261 261 260 259
242 243 245 246 248 249 251 253 255 256 256 256 255 255 256 257 259 259 260 261 263 263 263 262 260 259 258 256 254 253 252 252 251 250 249 249 249 249 250 250 250 251 251 251 252 252 252 252 252 253 253 254 255 255 257 258 259 260 261 262 262 263 264 264 264 264 264 264 264 265 266 267 267 268 268 268 267 267 267 266 266 265 263 262 261 260 259 257
241 242 243 245 247 249 250 252 254 255 255 255 254 255 255 257 258 258 259 261 263 264 264 263 261 258 256 254 253 253 252 252 251 250 250 249 249 249 250 250 250 251 251 251 251 251 251 252 252 253 253 254 255 256 257 258 260 261 261 262 263 264 264 264 265 265 265 265 265 266 267 268 268 268 268 268 267 267 267 266 265 265 264 262 261 259 257 255
240 241 242 244 246 248 249 251 253 253 253 254 254 254 254 255 256 257 259 260 262 263 264 264 261 257 254 252 251 251 252 252 251 251 251 250 250 250 250 250 250 250 250 251 251 252 252 253 253 253 254 255 255 256 257 259 260 261 262 263 263 264 265 265 265 266 266 266 267 268 268 268 268 268 267 267 267 267 267 266 265 264 263 261 259 257 255 253
239 240 241 243 245 246 248 249 251 251 252 252 252 252 253 254 255 256 258 259 261 262 264 264 261 256 253 251 250 250 251 252 252 252 252 252 252 251 251 251 251 251 252 252 253 253 254 254 254 255 255 255 256 257 258 259 260 261 262 263 264 264 265 266 266 266 267 268 268 269 269 268 267 267 267 267 267 267 266 266 265 263 261 259 256 254 253 252
238 239 241 242 243 245 247 248 249 249 250 250 251 251 252 253 254 255 257 259 260 260 263 263 259 256 253 251 250 250 251 251 252 253 253 253 253 254 253 253 254 254 254 255 255 255 255 256 256 256 257 257 258 258 259 260 261 262 263 263 264 264 265 266 267 267 267 268 269 269 269 268 267 267 266 266 266 265 265 264 263 260 257 255 253 252 252 251
237 238 239 241 242 244 245 246 247 247 248 249 249 250 251 252 253 255 256 257 258 259 261 260 258 256 253 251 251 251 251 251 252 253 253 254 255 255 256 256 256 256 256 256 256 257 257 257 257 258 258 259 259 260 260 261 262 263 263 264 264 265 265 266 267 267 268 269 269 269 268 267 266 266 265 264 264 264 263 262 260 257 253 252 251 250 250 249
235 237 238 240 241 242 243 244 245 245 246 247 248 249 250 251 252 253 255 256 256 256 258 257 255 254 253 251 251 251 251 251 252 253 253 254 255 256 256 256 256 256 256 256 256 257 257 257 258 258 259 259 260 260 261 261 262 263 263 264 264 264 265 265 266 267 268 268 268 267 267 266 265 264 263 262 261 261 259 257 255 253 251 249 249 249 248 247
234 235 237 238 239 240 241 242 243 244 245 246 247 248 249 250 251 252 253 254 254 255 256 255 253 252 252 250 250 251 251 251 251 252 253 253 254 254 254 254 255 255 255 255 256 256 257 257 258 258 259 259 260 260 261 261 262 262 262 262 263 264 264 265 265 266 266 266 266 265 265 265 264 262 260 259 257 256 255 253 251 250 249 248 248 247 247 246
234 234 235 237 238 239 240 241 242 243 243 245 246 247 249 249 250 251 252 252 253 253 254 254 252 251 251 250 249 251 252 251 250 250 251 251 251 251 252 253 253 254 254 255 256 256 257 257 257 258 258 259 259 260 260 261 261 261 261 262 262 263 263 263 264 264 264 264 264 263 262 261 260 259 257 255 253 252 251 250 249 248 247 247 247 246 247 246
233 234 234 235 236 238 238 240 241 242 242 243 245 247 248 249 249 250 251 251 252 252 253 254 253 251 251 251 250 250 251 252 251 250 250 251 252 252 253 253 254 255 255 256 256 257 257 257 258 258 258 258 259 259 260 260 261 261 261 261 261 261 262 261 261 261 261 261 260 259 258 258 257 256 255 252 250 249 248 248 247 246 245 246 247 246 246 246
233 233 233 234 235 236 238 239 240 241 242 242 244 245 247 248 249 249 250 251 251 252 252 253 253 252 251 251 251 250 251 253 254 253 253 253 254 255 255 255 256 256 257 257 258 259 259 259 259 259 259 258 259 259 260 261 261 261 261 261 261 261 260 259 258 257 257 257 257 256 255 255 254 253 252 251 249 247 246 245 245 244 244 245 246 246 245 245
232 233 233 233 234 235 237 238 239 240 241 241 243 244 246 247 248 249 250 250 251 251 251 252 253 253 252 251 251 251 251 253 255 256 256 255 255 256 257 257 257 258 258 259 260 261 261 262 262 261 260 259 259 260 261 261 261 261 261 261 261 260 259 257 255 254 253 253 253 253 253 253 253 252 251 250 249 247 245 244 243 243 243 244 245 245 245 244
232 232 232 232 233 234 235 236 238 239 240 241 242 243 245 246 248 249 250 250 250 251 251 251 252 253 252 251 251 252 252 253 254 255 256 256 256 257 257 258 259 260 261 262 263 264 264 264 264 263 263 263 263 263 262 262 261 261 261 260 260 259 257 255 253 251 250 251 251 251 252 254 253 251 249 249 248 246 245 244 243 242 243 244 246 246 246 245
232 231 232 232 232 233 234 235 236 238 239 240 241 242 244 245 247 249 250 250 250 251 251 251 251 252 252 252 252 252 252 253 253 254 255 257 258 258 258 260 261 262 264 265 266 266 266 266 266 266 267 267 266 266 264 263 262 261 259 258 257 256 255 253 252 251 249 250 251 251 252 253 253 251 249 247 246 245 244 244 243 243 243 245 247 247 247 246
231 231 231 231 232 232 233 234 235 236 238 239 240 242 243 244 246 248 249 249 249 251 251 251 251 252 252 252 252 252 252 253 254 255 257 257 258 259 260 261 263 264 266 266 266 266 267 268 268 269 269 269 268 267 265 263 262 259 257 256 255 254 253 252 252 251 250 251 252 251 251 252 252 251 249 247 246 244 243 243 243 242 242 243 246 247 247 245
231 232 232 232 232 232 233 233 234 235 237 238 240 241 242 243 244 246 248 249 249 250 251 252 251 252 252 252 253 252 253 254 255 256 257 258 259 260 261 262 264 265 266 266 266 267 268 270 270 271 271 271 269 268 265 263 260 258 256 254 253 252 253 253 252 252 252 252 253 251 250 251 251 250 249 247 246 244 242 242 243 242 241 241 244 246 245 243
230 231 233 234 234 234 234 234 235 235 236 238 239 240 241 242 244 245 247 248 248 248 250 252 252 252 252 252 253 253 253 255 256 256 258 259 259 260 262 263 264 265 266 267 268 269 271 272 273 273 274 273 271 268 265 262 259 257 254 252 251 251 253 253 251 251 251 250 251 251 250 250 250 249 248 247 246 244 242 241 242 242 241 241 242 244 243 242
231 232 233 235 235 236 236 236 236 236 237 238 239 240 241 241 242 244 245 247 246 246 249 251 253 253 253 252 253 254 254 255 257 258 258 259 259 260 261 263 265 266 267 269 271 272 274 274 275 276 276 273 270 267 264 260 258 255 252 250 250 250 250 250 248 248 248 248 248 249 250 249 249 248 246 246 246 245 242 242 241 241 242 240 240 242 242 241
232 233 233 234 235 236 237 237 237 237 238 238 239 240 240 241 241 242 244 245 245 245 247 249 251 253 253 253 253 254 255 256 257 259 259 259 260 261 262 264 265 267 270 272 274 275 276 277 279 278 275 271 268 264 260 258 256 253 251 249 248 247 247 246 246 245 247 248 246 247 249 249 249 249 246 245 246 246 243 242 241 241 241 241 239 240 241 241
234 234 234 235 235 236 236 237 238 238 239 239 239 239 240 240 241 241 242 244 244 244 245 247 249 252 253 254 254 255 255 257 258 260 261 261 262 262 264 265 267 270 273 275 276 276 277 279 281 278 273 268 263 260 258 256 254 251 249 247 245 244 244 245 245 245 246 247 246 247 249 248 247 250 249 245 245 245 243 243 242 241 241 241 240 239 240 240
234 235 236 237 237 237 237 238 238 238 239 239 239 239 240 240 241 241 242 243 243 244 245 246 248 250 252 254 255 255 256 257 258 260 261 262 263 264 265 266 269 272 274 275 277 278 279 281 281 276 269 263 260 259 258 256 253 250 248 245 243 242 243 244 244 245 246 247 248 247 248 248 246 249 251 247 244 244 242 242 243 242 241 240 239 239 239 240
234 235 236 237 238 238 239 239 239 238 238 239 239 240 240 241 241 242 243 243 243 244 245 246 248 249 251 253 254 255 256 256 257 259 260 262 263 265 266 268 271 273 275 276 278 279 281 282 279 272 264 261 260 259 258 256 253 251 248 245 243 242 242 243 244 245 247 249 249 247 246 246 246 248 250 246 243 243 241 240 240 240 240 239 238 237 236 236
235 235 236 238 238 239 239 240 239 239 238 238 238 239 240 241 241 242 243 244 245 246 247 248 249 250 251 252 253 254 255 256 257 259 260 262 264 265 267 270 272 273 275 277 279 280 282 281 275 267 262 261 260 259 257 256 254 251 248 245 244 242 242 243 245 247 249 250 248 245 244 244 245 247 249 246 242 240 240 240 239 238 238 237 236 234 233 231
235 236 237 239 240 240 240 240 240 239 238 237 237 237 238 240 241 242 243 245 246 247 248 249 249 249 251 252 253 254 255 256 257 259 260 262 264 266 268 270 272 274 276 279 280 282 281 276 268 263 261 260 259 257 255 254 251 249 246 244 243 243 242 242 246 247 247 246 245 244 241 241 243 244 246 245 242 238 237 238 237 236 236 235 233 231 229 227
237 237 238 240 240 240 240 241 241 241 239 238 236 236 237 238 239 241 243 244 246 246 247 248 248 249 250 251 252 253 254 255 257 258 260 261 263 266 268 270 272 275 278 280 281 281 277 270 264 262 260 257 255 254 252 250 249 248 246 243 242 243 241 239 242 243 242 242 242 242 239 237 241 242 242 242 240 236 234 235 235 234 233 232 230 227 225 222
239 239 240 241 242 242 243 243 243 242 241 239 237 235 235 236 237 239 241 243 244 245 246 247 247 248 249 251 251 252 253 255 256 258 259 261 264 266 268 271 273 277 280 281 280 277 270 265 262 260 258 256 253 251 250 250 250 248 244 239 237 238 237 234 236 238 240 241 242 241 238 237 239 240 240 240 237 233 231 232 232 231 230 229 226 224 221 219
240 240 242 243 243 244 245 246 246 245 243 241 239 236 234 234 236 238 239 241 243 244 245 246 246 247 249 250 250 252 253 255 256 257 259 261 264 267 269 272 275 278 280 279 275 270 265 262 261 260 259 257 254 252 251 250 248 244 240 235 232 232 233 233 234 236 239 241 242 241 237 235 237 239 240 240 237 231 229 229 230 229 228 226 224 222 220 218
241 242 243 244 245 246 247 247 247 246 244 242 240 237 235 234 235 236 238 240 241 243 244 245 246 247 248 249 250 251 253 254 255 257 259 262 264 267 270 273 276 279 278 275 269 265 262 260 259 259 258 257 255 253 250 247 244 241 236 232 229 228 229 232 233 234 236 238 240 239 236 234 235 236 236 237 235 231 228 228 229 229 227 225 223 221 219 219
242 244 246 247 248 249 249 248 247 246 245 242 240 238 237 235 235 235 237 238 240 242 243 245 246 246 247 248 249 250 251 253 255 257 260 262 265 268 271 274 277 278 275 269 265 263 262 259 258 257 256 254 253 250 247 244 241 237 232 229 227 225 227 230 233 234 235 236 238 238 236 233 232 233 232 232 232 229 226 227 228 228 227 225 224 222 221 220
245 247 249 250 252 252 251 250 247 245 243 241 239 238 236 235 235 235 236 237 239 241 243 244 244 244 245 245 246 248 249 252 254 257 260 263 265 269 272 275 276 274 270 265 262 261 260 259 258 256 252 249 247 246 244 241 237 232 228 226 224 222 224 228 232 234 233 234 236 236 235 232 231 231 231 229 229 227 226 227 227 227 227 226 225 223 222 221
247 249 251 253 253 253 251 249 246 243 240 238 236 235 234 234 235 235 236 236 237 239 240 241 242 243 243 244 245 246 248 251 255 258 261 264 267 270 273 275 274 270 265 262 261 259 257 258 259 255 250 246 243 241 239 236 231 228 226 224 222 221 222 226 230 232 232 232 233 234 232 231 231 231 229 229 228 227 225 227 227 227 226 226 225 224 223 221
250 252 253 254 253 251 249 246 243 240 237 235 234 232 231 231 232 233 234 234 235 237 239 240 241 242 242 243 244 246 248 251 255 258 261 265 268 270 273 273 270 265 261 259 258 257 256 256 256 253 248 243 239 236 235 233 229 226 224 222 221 221 222 225 228 230 230 230 232 231 229 228 230 231 229 229 228 227 225 226 227 225 224 224 223 223 221 218
253 254 253 252 250 247 245 241 238 236 234 233 231 229 227 227 228 230 231 232 234 236 238 239 240 240 241 242 244 247 249 251 255 258 262 265 267 269 271 269 264 261 258 256 255 254 254 254 251 249 245 240 238 235 233 231 227 224 223 221 220 221 223 225 227 228 229 229 231 230 227 226 229 230 229 228 228 226 226 226 226 225 223 221 220 219 218 215
254 253 251 248 245 242 239 236 233 232 231 230 228 226 224 224 226 228 230 232 234 236 237 238 239 240 242 243 245 248 251 253 256 258 261 264 266 268 266 263 261 258 256 255 253 252 253 254 251 246 241 238 236 233 231 230 226 223 222 220 220 221 223 226 227 228 229 228 229 229 226 227 228 228 228 227 226 224 223 223 223 223 222 220 218 217 215 211
253 250 246 243 239 236 233 231 229 227 226 225 225 225 224 225 227 229 230 232 234 236 237 238 240 241 243 244 246 249 252 254 256 258 260 263 265 264 261 259 258 255 252 252 251 250 252 253 249 243 238 236 234 231 229 227 225 223 222 221 219 219 222 225 226 228 229 227 228 228 227 230 230 228 228 228 226 223 221 220 220 220 218 217 216 214 210 206
249 245 241 237 234 231 228 227 226 224 223 222 222 223 224 226 229 231 233 234 235 236 238 239 241 242 243 245 247 249 252 255 257 258 260 261 261 258 256 256 255 252 250 249 247 248 250 249 245 240 236 234 232 230 228 226 224 222 221 220 219 218 221 224 224 225 226 226 226 225 226 231 232 228 227 228 226 224 221 220 220 219 216 213 211 208 205 200
243 239 235 232 229 227 225 224 224 223 223 223 223 223 225 227 230 232 234 235 236 237 238 240 241 243 245 247 249 250 252 254 256 258 259 258 256 254 253 254 252 249 247 245 244 246 248 247 244 238 234 233 231 229 228 226 224 222 219 219 219 218 220 223 223 224 224 225 227 225 223 228 231 227 225 225 225 223 220 217 217 216 213 210 206 203 201 195
237 233 230 228 225 223 222 223 223 224 224 225 225 226 227 228 229 232 234 235 236 236 238 240 242 244 246 248 249 251 252 254 256 257 256 253 251 251 251 251 249 247 244 241 240 243 245 245 243 236 230 230 231 230 228 226 224 223 221 219 220 220 220 221 223 223 223 224 228 227 225 228 230 227 224 223 222 222 219 214 212 210 208 206 204 201 198 192
232 229 227 225 223 221 220 221 222 224 226 227 228 228 229 230 231 233 235 237 237 238 239 241 243 245 247 249 250 251 253 253 254 253 252 250 249 248 248 247 246 244 241 238 237 240 241 242 240 234 228 227 228 229 229 226 225 224 222 220 220 221 221 221 221 222 223 223 225 227 228 229 230 228 226 223 221 220 217 212 209 207 204 203 203 201 196 191
227 225 225 224 223 222 222 223 223 224 226 227 229 230 231 232 233 235 236 238 240 241 242 243 245 247 249 250 252 252 252 251 250 249 249 248 246 245 246 245 243 241 237 235 236 237 238 239 237 233 229 227 227 229 229 227 225 224 223 221 220 221 221 221 221 221 222 221 220 224 227 228 228 228 226 224 221 219 215 211 208 205 203 202 203 200 195 190
222 221 221 222 222 223 225 226 227 228 229 230 232 233 234 235 236 237 239 240 242 244 245 247 248 249 250 251 252 252 251 249 247 245 245 245 244 242 241 239 236 233 232 233 234 233 234 236 235 232 229 227 226 227 227 227 225 224 224 222 221 221 222 221 221 222 222 221 219 222 226 227 226 226 226 224 221 217 214 210 207 205 203 201 202 199 193 189
218 216 216 217 220 222 225 227 229 231 232 234 236 238 239 241 242 242 243 245 246 247 248 249 250 249 249 250 250 249 248 246 244 242 241 241 241 238 235 232 230 228 227 230 231 230 231 233 233 231 229 228 229 228 226 226 225 224 223 223 222 222 222 222 222 222 223 222 221 222 225 226 226 225 225 224 221 217 213 210 207 206 203 201 200 198 193 189
215 215 216 217 220 224 226 229 231 233 236 238 240 242 243 245 246 246 247 248 249 249 249 249 250 249 248 247 247 246 245 243 240 238 236 236 234 232 229 227 227 226 226 228 230 229 229 232 233 231 230 230 231 231 227 225 225 224 223 223 223 223 223 222 222 223 223 223 222 223 225 226 226 225 225 224 221 217 212 209 208 206 204 202 200 197 193 190
216 217 218 221 225 229 232 234 236 238 240 242 244 245 247 248 248 249 249 249 249 249 249 249 249 249 248 247 245 242 241 239 235 231 229 227 227 226 224 223 223 225 227 229 231 229 228 230 231 231 230 229 232 232 229 225 224 225 224 223 223 224 223 223 223 223 224 224 223 223 224 225 225 225 224 224 222 218 213 210 208 207 205 202 199 197 195 192